Regional Weather Roundup
Issued by NWS Jackson, KY

Home | Current Version | Previous Version | Graphics & Text | Print | Product List | Glossary On
Versions: 1 2 3 4 5 6 7 8 9 10 11 12 13 14 15 16 17 18 19 20 21 22 23 24 25 26 27 28 29 30 31 32 33 34 35 36 37 38 39 40 41 42 43 44 45 46 47 48 49 50
000
ASUS43 KJKL 220010
RWRJKL

EAST KENTUCKY HOURLY WEATHER ROUNDUP
NATIONAL WEATHER SERVICE JACKSON KY
800 PM EDT THU MAY 21 2015

NOTE: "FAIR" INDICATES FEW OR NO CLOUDS BELOW 12,000 FEET WITH
NO SIGNIFICANT WEATHER AND/OR OBSTRUCTIONS TO VISIBILITY.

* THESE REPORTS ARE NOT UNDER NWS QUALITY CONTROL AND MAY NOT
  REPORT WEATHER SUCH AS PRECIPITATION AND FOG.

KYZ079-080-083-085-087-088-110-112-115-119-120-220100
...EASTERN KENTUCKY...

CITY           SKY/WX    TMP DP  RH WIND       PRES   REMARKS
JACKSON        CLOUDY    50  47  89 NW5       30.09R
6HR MIN TEMP:  50; 6HR MAX TEMP:  54; 6HR PCP:  0.05;

LONDON         CLOUDY    53  45  74 NW6       30.11R
6HR MIN TEMP:  53; 6HR MAX TEMP:  58; 6HR PCP: TRACE;

SOMERSET*      CLOUDY    52  45  76 NW3       30.13S
MONTICELLO*    CLOUDY    54  52  94 NW6       30.16R
6HR MIN TEMP:  53; 6HR MAX TEMP:  57;

MIDDLESBORO*   DRIZZLE   53  49  87 N9        30.10R
6HR MIN TEMP:  53; 6HR MAX TEMP:  59;

HARLAN APT*    CLOUDY    52  46  82 NW6       30.09R
HAZARD APT*    CLOUDY    52  52 100 NW6       30.10R
BLACK MTN*       N/A     43  43 100 NE3         N/A
PIKEVILLE APT* CLOUDY    50  48  93 W8        30.08R
BIG SANDY*     CLOUDY    51  49  92 N7        30.08R
6HR MIN TEMP:  51; 6HR MAX TEMP:  54;

MOREHEAD APT*  CLOUDY    54  45  71 NW3       30.11R
$$

KYZ035-036-041-042-044-050-067-078-099-220100
...CENTRAL KENTUCKY...

CITY           SKY/WX    TMP DP  RH WIND       PRES   REMARKS
MT STERLING*   CLOUDY    54  45  71 N3        30.12R
FLEMING/MASON* CLOUDY    54  41  62 NW6       30.10R
DANVILLE*      CLOUDY    54  43  66 NW7       30.13R
RICHMOND*      CLOUDY    52  45  76 NW6       30.11R
LEXINGTON      CLOUDY    54  42  64 NW7       30.11R
6HR MIN TEMP:  51; 6HR MAX TEMP:  56; 6HR PCP: TRACE;

FRANKFORT      CLOUDY    56  41  57 NW3       30.11R
6HR MIN TEMP:  54; 6HR MAX TEMP:  58;

$$

KYZ091>093-OHZ055-061-077-WVZ005-015-034-035-042-220100
...SOUTHERN OHIO/WEST VIRGINIA...

CITY           SKY/WX    TMP DP  RH WIND       PRES   REMARKS
COVINGTON      PTCLDY    56  41  57 NW9       30.09R
COLUMBUS       PTCLDY    55  40  56 NW8       30.04R
DAYTON         PTCLDY    58  39  49 NW13      30.07S
WILMINGTON     PTCLDY    55  39  54 NW12      30.06S
HUNTINGTON     CLOUDY    52  45  77 W7        30.06R
CHARLESTON     LGT RAIN  52  49  89 W6        30.04R FOG
PINEVILLE*     DRIZZLE   52  51  97 MISG      30.09R
BECKLEY        LGT RAIN  48  45  89 NW8       30.02R FOG
BLUEFIELD      CLOUDY    51  46  83 NW9G17    30.03R
$$

VAZ002-007-008-TNZ017-027-036-066-071-220100
...SOUTHWEST VIRGINIA/EAST TENNESSEE...

CITY           SKY/WX    TMP DP  RH WIND       PRES   REMARKS
WISE*          CLOUDY    50  50 100 W9        30.08R
JONESVILLE*    LGT RAIN  54  52  94 NW3       30.10R
ABINGDON*      CLOUDY    56  49  76 N9G16     30.03R
BRISTOL        CLOUDY    59  48  67 W10       30.04R
KNOXVILLE      CLOUDY    59  48  67 NW8       30.08R
OAK RIDGE      CLOUDY    59  47  64 N5        30.11R
CROSSVILLE     CLOUDY    51  45  79 NW9       30.12R
NASHVILLE      CLOUDY    57  46  66 NW9       30.15S
$$

...KEY TO REMARKS...
VSB - VISIBILITY IN MILES
WCI - WIND CHILL INDEX
HX  - HEAT INDEX

$$


USA.gov is the U.S. government's official web portal to all federal, state and local government web resources and services.